GFSWCAN_500_rhum_153.txt.gz
RH
79 61 80 100 100 55 66 59 52 67 86 68 28 31 18 14 17 16 20 88 100 95 99 89 72 65 77 89 100 100 96 84 100 100 99 100 98 100 99 99 99 100 100 94 96 87 65 79 81 65 45 35 30 18
100 99 100 100 88 68 73 55 43 74 88 96 80 30 21 16 18 17 23 98 100 100 100 95 85 79 93 100 100 100 100 100 100 99 96 100 99 100 100 82 100 98 87 100 100 98 100 100 87 75 86 76 28 15
100 100 100 95 66 76 82 70 60 86 97 96 93 26 21 18 19 24 100 100 100 100 100 100 82 87 91 92 98 96 100 96 99 94 97 95 85 98 95 89 97 100 100 97 98 93 90 100 96 83 78 48 22 32
100 100 100 72 48 52 50 48 67 77 94 99 71 27 30 19 18 46 100 100 100 100 95 96 88 84 86 82 89 94 93 96 98 100 100 93 92 100 92 80 82 94 100 100 91 93 90 97 69 30 20 14 28 43
86 80 50 34 35 36 35 37 42 67 77 97 44 30 23 17 27 100 100 100 96 100 100 87 74 71 54 64 64 73 88 100 100 100 87 89 95 99 86 87 68 100 100 100 100 100 96 63 54 72 63 44 78 66
65 32 45 75 98 99 100 100 87 74 80 48 27 19 18 34 97 100 100 100 100 100 96 93 89 76 79 86 83 64 55 80 100 100 100 99 97 88 68 65 92 96 98 100 100 57 56 68 51 35 38 37 60 57
35 86 100 98 100 100 100 100 98 41 34 23 23 44 100 100 100 100 99 99 100 100 99 72 49 42 55 80 69 64 63 66 83 93 100 100 100 98 67 54 85 99 96 73 48 43 42 22 23 30 40 52 53 50
100 92 99 100 100 33 17 20 15 17 21 40 95 100 100 100 100 100 100 100 99 99 89 46 40 44 75 84 96 97 83 80 58 74 86 90 87 83 58 62 50 34 33 38 25 26 36 32 34 46 51 52 53 34
91 99 100 100 100 100 19 15 16 18 22 88 100 100 100 100 100 100 99 100 100 80 44 36 40 65 66 89 54 39 39 41 64 60 70 81 61 45 40 38 31 28 25 20 17 16 18 30 46 53 49 45 38 33
92 100 100 100 100 100 96 100 100 100 100 93 94 99 100 100 100 100 100 100 87 91 74 88 62 73 56 47 47 42 45 38 47 61 69 55 46 56 60 50 41 42 44 48 48 50 54 52 47 41 46 40 38 49
97 100 100 100 100 100 100 92 37 38 72 100 100 99 100 100 100 100 100 83 72 84 87 72 72 70 64 66 59 55 52 48 44 55 75 40 38 70 50 47 44 47 51 48 42 41 42 39 37 31 41 37 42 50
86 98 100 100 100 100 100 100 100 84 59 57 80 88 89 85 90 100 95 100 100 100 93 77 80 70 62 58 61 74 71 54 32 51 72 38 93 64 62 78 91 97 73 39 32 30 41 52 34 38 48 45 47 41
58 80 100 100 100 100 100 100 100 100 98 100 100 99 100 99 100 100 94 100 96 84 82 69 58 50 49 45 41 47 59 44 34 35 62 90 100 100 100 100 100 86 66 40 46 52 56 60 71 62 54 44 41 74
64 56 67 96 100 99 100 96 79 87 94 84 76 78 88 84 79 90 96 94 88 74 56 47 42 39 33 33 38 43 62 54 30 27 63 100 100 100 100 95 85 81 94 84 56 60 74 76 72 78 82 86 98 100
73 78 64 72 87 94 96 100 100 100 100 98 84 84 81 78 74 60 45 38 37 36 34 29 23 22 21 31 45 53 51 28 20 25 69 100 100 99 96 100 100 94 95 89 91 82 90 99 100 100 100 100 100 100
47 50 49 58 57 53 53 55 58 61 62 60 52 46 41 38 38 37 37 32 29 25 22 20 60 91 98 100 88 78 91 83 63 52 59 62 85 88 82 100 96 92 87 89 98 100 100 100 100 100 100 100 100 70
33 34 31 30 33 37 42 44 42 41 39 41 36 31 30 28 33 54 46 67 52 78 91 98 99 100 80 82 78 79 71 72 70 62 58 65 84 97 76 86 78 84 89 99 100 100 100 97 92 96 94 87 45 24
13 14 18 26 34 36 36 32 34 40 59 75 80 75 75 58 54 72 87 88 90 87 100 86 70 79 68 70 100 100 100 100 100 100 94 88 83 78 69 68 70 71 93 100 100 99 98 84 54 31 22 23 23 23
37 59 74 88 95 100 96 91 86 82 66 55 43 28 35 44 51 54 50 58 65 71 74 76 67 59 62 73 100 100 100 100 100 100 99 76 73 81 89 91 97 96 99 100 99 98 66 28 25 24 25 26 25 27
33 46 58 73 91 100 100 100 100 100 100 100 100 94 71 57 54 53 54 61 64 58 50 53 64 65 92 100 100 100 100 100 100 100 100 96 92 100 100 100 96 96 100 88 54 42 24 21 24 26 26 27 29 28
57 56 57 61 67 72 73 85 94 100 100 100 100 92 89 85 81 71 67 66 66 74 79 83 78 78 100 100 100 100 100 100 100 100 100 100 100 100 100 100 100 100 81 68 57 28 17 17 18 20 23 25 26 26
100 98 91 91 91 95 91 97 98 98 100 100 100 100 100 99 100 100 93 84 94 100 100 100 100 100 100 100 100 100 100 100 100 100 100 100 100 100 100 100 100 96 81 74 66 47 24 21 21 22 26 28 29 35
100 100 100 100 100 100 100 100 100 99 100 99 98 94 87 88 98 94 81 77 92 100 99 96 93 100 98 99 96 100 100 100 100 98 100 100 100 100 100 99 98 98 96 90 74 46 30 32 32 33 40 54 66 71
100 100 100 100 100 100 100 100 100 100 100 100 100 100 100 95 80 88 100 100 98 93 97 99 100 100 100 100 100 100 100 100 100 100 100 100 100 99 100 100 100 100 100 98 98 98 97 98 98 95 85 85 94 99
87 95 99 100 100 100 100 100 100 100 100 100 100 100 100 100 95 94 97 100 100 100 100 100 100 100 100 100 100 100 100 100 100 100 100 100 100 100 100 100 100 100 100 100 100 100 100 100 100 100 100 100 100 100
65 85 85 96 100 99 100 100 100 100 100 100 100 100 100 98 98 100 100 98 91 98 99 98 100 100 100 100 100 100 98 100 100 100 99 100 100 100 100 100 100 100 100 100 100 100 100 100 100 100 100 100 100 100
24 36 56 64 67 76 85 88 93 92 98 100 100 100 100 99 100 100 100 100 100 95 92 97 100 99 99 100 100 98 99 100 100 100 100 100 100 100 100 100 100 100 100 100 100 100 100 100 100 100 100 100 100 99
11 17 21 24 29 34 40 50 58 65 71 79 87 98 100 100 100 100 100 100 100 100 100 100 100 100 100 100 99 100 100 100 100 100 100 100 100 100 100 100 100 100 100 100 100 100 100 100 98 81 64 51 45 35
5 6 7 10 12 15 15 17 20 41 55 60 70 84 95 100 100 100 100 100 100 100 100 100 100 100 100 100 100 100 100 100 100 100 100 100 100 100 100 99 96 85 69 50 39 37 38 37 37 35 34 34 32 35
12 9 6 6 6 7 8 10 12 15 19 27 44 58 65 67 77 80 92 96 98 100 100 100 100 100 100 100 100 100 99 95 92 81 70 56 46 37 27 24 23 22 21 21 22 23 24 26 27 27 28 30 35 67
27 17 12 10 9 8 7 7 7 8 9 13 15 19 34 54 66 64 61 58 56 54 53 52 51 52 56 56 50 46 40 36 26 21 19 20 20 22 25 28 31 33 35 37 38 38 38 36 35 33 32 37 61 85
66 52 36 18 15 12 11 9 8 8 8 8 9 9 12 14 16 23 32 38 44 46 46 43 40 37 32 26 23 21 22 23 26 30 31 31 31 30 32 34 40 45 51 60 68 75 76 69 62 57 59 67 81 97
98 92 76 62 46 29 22 14 10 9 9 9 9 8 9 10 12 14 16 18 22 26 27 27 25 24 25 28 30 30 29 26 25 26 29 31 32 35 38 42 48 54 65 77 84 94 100 100 100 100 100 100 100 100

GFSWCAN_500_rhum_156.txt.gz
RH
67 68 87 90 85 78 72 79 89 92 64 42 37 25 21 38 34 24 17 20 19 21 86 99 88 94 91 80 73 70 100 100 100 100 100 97 100 96 100 100 98 100 100 94 100 88 56 82 78 78 78 78 70 60
98 95 80 82 77 87 76 98 97 100 64 71 62 64 74 58 39 34 19 20 20 23 63 100 90 88 82 88 90 94 98 100 100 98 98 100 100 100 100 100 100 94 84 86 95 70 84 96 89 82 80 67 78 99
100 93 86 86 83 98 100 100 100 65 88 90 66 70 83 95 70 37 22 21 21 28 83 94 79 78 66 93 96 93 100 100 100 100 100 100 100 100 99 99 100 97 92 82 82 75 91 100 91 81 96 96 100 99
69 76 94 91 98 100 100 100 76 82 85 69 66 93 93 100 96 35 22 22 19 38 82 99 100 100 99 100 99 100 99 100 100 100 94 77 73 69 71 63 66 87 89 86 80 82 99 100 99 100 100 100 100 83
99 100 100 97 100 100 96 63 63 79 77 74 97 100 100 100 67 32 27 20 17 49 94 90 100 100 100 79 90 70 73 67 58 65 85 91 80 68 56 62 60 84 96 94 92 98 100 100 91 97 100 100 82 52
100 100 85 62 56 39 43 72 78 71 62 89 100 100 100 98 39 35 19 18 48 100 98 100 100 100 98 82 75 48 31 27 40 62 78 89 97 90 70 57 58 88 93 98 96 100 86 86 100 100 99 79 74 62
76 27 33 62 73 81 80 76 61 45 49 95 98 99 74 35 28 15 16 55 100 100 100 100 100 99 89 69 44 42 63 67 58 50 57 92 100 92 63 43 69 80 88 100 97 94 86 89 97 88 66 61 53 25
47 71 99 95 100 100 100 100 100 43 58 85 60 32 29 26 21 49 100 100 100 100 100 100 99 86 53 34 26 34 56 47 46 57 57 66 98 95 42 53 92 95 97 86 92 84 66 69 64 61 56 45 32 31
100 100 84 50 63 62 72 90 46 36 41 36 31 28 48 57 27 75 100 100 100 100 100 99 89 55 38 22 18 34 57 70 49 41 39 44 51 59 72 90 96 100 85 85 80 72 66 59 42 24 18 21 38 64
100 100 46 26 24 24 14 20 44 50 28 52 100 87 100 100 100 100 100 100 100 100 100 89 49 28 27 29 50 56 36 34 30 27 30 32 30 66 78 60 57 60 64 67 57 36 27 23 25 32 46 61 63 60
100 98 96 100 100 100 82 90 100 100 92 93 100 98 100 97 100 100 100 100 100 99 87 56 46 40 40 65 58 48 51 49 42 34 25 25 37 68 72 56 50 49 50 48 40 40 43 49 58 57 53 52 52 49
100 93 71 99 92 89 100 95 87 92 100 100 100 100 100 100 100 100 97 100 100 76 58 60 62 57 70 72 66 71 58 38 33 32 23 20 31 74 59 48 44 67 73 69 70 62 52 47 42 38 37 45 39 37
99 100 100 100 87 76 100 100 100 100 100 100 100 100 100 100 100 100 100 96 72 57 78 87 92 90 85 80 62 52 50 37 30 22 18 25 33 67 100 98 90 100 100 100 100 86 55 46 53 62 72 60 57 54
81 89 100 99 90 78 70 93 91 89 89 90 99 96 89 85 77 77 93 100 88 100 100 99 95 97 85 70 54 45 35 31 27 23 14 27 35 54 99 100 100 98 93 89 80 77 69 53 52 55 59 65 73 85
67 70 77 73 72 72 73 65 70 96 100 76 57 54 55 70 77 92 95 100 100 100 100 96 86 73 62 50 40 28 22 20 19 27 60 49 37 65 96 95 95 99 91 88 79 75 78 58 50 62 81 92 100 100
67 80 77 80 86 89 80 65 68 82 60 45 47 78 82 91 100 100 100 97 92 88 74 60 51 35 30 29 32 32 35 61 96 94 100 100 99 90 97 91 83 74 80 61 65 78 78 79 84 94 99 100 100 100
52 48 48 59 70 79 84 77 71 69 57 55 56 55 62 54 59 57 60 60 54 49 36 31 31 30 40 68 80 79 57 82 94 100 88 79 73 66 57 57 61 59 58 68 81 79 92 100 100 100 91 98 100 100
31 31 36 43 42 41 42 45 46 44 38 35 36 35 25 19 19 20 20 20 20 24 21 29 31 39 41 67 71 57 97 100 100 100 100 90 63 39 42 42 51 60 62 73 78 93 100 100 100 99 89 69 56 42
10 11 14 19 23 24 23 21 22 25 38 51 52 39 36 38 39 48 60 82 96 99 95 79 66 54 51 48 48 77 96 100 100 98 90 78 87 75 74 75 74 79 85 95 100 100 100 99 99 65 33 27 29 32
24 22 22 25 32 45 57 65 75 80 91 94 91 89 55 47 45 46 48 58 68 67 44 32 40 56 56 50 60 74 87 90 93 86 89 99 100 100 100 100 100 100 100 100 100 100 94 86 55 36 34 38 37 37
56 59 68 76 81 90 90 86 87 84 71 75 75 76 84 81 74 65 49 42 43 46 58 77 98 92 64 47 58 76 100 97 87 92 97 99 100 98 99 100 100 100 100 100 85 72 85 67 28 28 31 32 36 37
75 81 90 94 91 84 84 79 79 71 69 70 66 66 70 76 81 78 81 88 89 80 79 73 71 69 64 69 77 77 87 94 97 100 100 100 97 99 100 100 100 100 100 100 100 95 90 74 53 38 34 31 31 36
98 99 98 98 100 92 90 93 89 88 89 88 93 96 94 92 92 85 75 70 79 84 87 93 96 96 91 89 96 100 100 100 100 100 100 100 98 100 100 100 100 100 100 100 100 100 98 80 58 46 42 42 50 61
100 100 100 100 100 100 99 99 99 99 98 98 99 100 100 100 98 100 100 96 94 87 85 92 98 100 100 100 100 100 100 100 100 100 99 100 100 100 100 100 100 100 100 100 100 100 99 98 99 99 99 100 100 100
82 97 96 100 100 100 100 100 100 100 100 100 100 100 100 99 98 100 100 100 100 100 99 96 95 97 100 100 100 100 100 100 100 100 100 100 100 100 100 100 100 100 100 100 100 100 100 100 100 100 100 100 100 100
40 57 63 66 71 79 86 91 93 93 96 98 99 100 100 100 100 100 100 100 100 100 96 98 100 100 100 100 100 100 100 100 100 100 100 100 100 100 100 100 100 100 100 100 100 100 100 100 100 100 100 100 100 100
12 17 24 31 37 46 53 61 66 67 69 73 82 92 99 100 100 100 100 100 100 100 100 100 100 100 100 100 100 100 100 100 100 100 100 100 100 100 100 100 100 100 100 100 100 100 100 100 100 100 100 100 100 100
6 6 8 10 14 17 20 22 22 24 34 45 57 62 75 90 94 97 100 100 100 100 100 100 100 100 100 100 100 100 100 100 100 100 100 100 100 100 100 100 100 100 100 100 100 100 100 100 100 100 99 98 97 75
10 8 7 6 7 8 10 10 12 14 14 15 17 35 55 64 68 73 87 99 100 100 100 100 100 100 100 100 100 100 100 100 100 100 100 100 100 100 100 100 100 99 98 92 77 58 40 35 36 37 35 32 32 32
81 59 17 9 8 8 8 7 7 8 9 9 9 12 18 36 50 60 62 62 61 62 66 73 80 84 88 93 94 96 98 97 97 94 94 90 86 73 57 46 33 26 24 23 24 24 25 27 28 29 30 32 32 32
100 100 100 88 44 21 12 10 9 8 8 8 7 8 8 10 14 19 25 40 58 63 63 63 63 62 60 57 55 53 52 48 37 29 25 23 22 25 28 31 34 34 37 40 42 46 51 54 58 60 62 59 54 51
100 100 100 100 100 98 89 50 18 12 10 9 8 8 8 8 8 11 10 11 13 15 18 22 26 30 32 32 31 28 25 24 27 31 33 31 31 32 32 33 34 35 38 42 47 55 65 74 84 96 100 100 100 100
88 99 100 100 100 100 100 100 98 67 35 14 10 10 10 9 9 9 9 10 12 15 17 20 23 25 26 26 26 28 30 28 24 24 25 24 24 28 35 40 46 52 58 63 65 68 73 81 95 100 100 100 100 100

GFSWCAN_500_rhum_159.txt.gz
RH
100 100 98 69 40 42 86 99 100 100 66 35 37 37 26 23 35 45 30 38 67 82 74 84 98 100 100 100 100 99 100 95 84 100 100 99 97 99 99 90 84 90 98 100 100 90 55 56 85 82 74 71 69 73
95 100 100 92 67 63 46 45 52 56 72 84 71 66 67 68 41 28 38 38 35 34 55 73 93 100 97 100 100 100 100 88 99 100 100 100 100 100 100 96 88 100 94 100 100 77 79 73 72 75 68 69 69 85
99 100 100 99 83 81 94 100 98 100 100 96 100 91 88 64 69 76 48 48 41 24 27 38 66 100 92 79 100 100 94 88 100 100 100 100 84 97 100 100 100 100 100 89 77 80 87 83 75 69 87 76 83 100
100 100 100 100 98 89 86 89 86 98 100 100 100 84 69 67 96 100 100 71 42 24 23 29 38 85 79 84 99 99 100 100 100 97 96 80 100 100 100 100 100 100 99 90 86 76 74 85 88 85 84 94 99 100
97 100 100 100 92 98 100 97 98 100 100 100 92 82 82 66 98 99 100 95 36 23 16 19 38 74 72 96 99 100 100 100 94 99 100 100 100 93 87 88 82 71 68 75 63 70 92 96 98 92 96 100 100 100
100 69 48 51 92 100 100 100 100 100 100 98 87 84 70 79 99 100 98 71 31 26 18 17 63 100 100 100 100 100 100 100 90 69 54 54 47 40 29 36 63 72 62 56 66 75 75 83 86 92 90 99 100 96
66 76 96 100 100 95 79 69 83 97 80 88 96 91 94 98 100 90 72 62 38 26 60 100 98 100 100 100 100 100 98 89 53 30 21 20 24 21 11 16 56 99 100 93 78 85 79 79 74 78 67 72 80 70
77 53 37 42 57 68 86 83 84 86 87 94 96 100 100 100 86 73 86 47 26 28 100 99 100 97 99 100 100 100 75 49 27 21 18 28 25 30 14 36 94 98 88 84 77 68 63 66 60 74 80 78 73 76
95 100 100 100 100 100 100 100 100 81 61 66 89 97 94 62 52 53 41 29 42 100 100 100 100 96 100 100 96 77 30 21 26 24 31 21 23 32 42 48 76 91 68 73 68 58 54 58 73 79 86 71 61 49
35 43 55 81 76 78 96 100 72 38 51 77 74 46 37 39 33 80 100 92 63 95 100 62 92 100 100 84 41 27 36 29 30 34 28 25 23 24 28 32 56 82 95 97 93 99 89 70 70 71 59 41 30 22
58 99 100 19 20 19 21 19 28 42 42 35 44 71 41 44 71 100 100 100 100 99 90 100 100 100 79 49 32 34 38 32 30 31 35 32 19 27 28 23 37 57 68 66 76 85 91 88 77 57 36 30 35 49
100 100 100 72 21 58 68 55 43 71 97 100 100 100 100 100 100 100 100 100 100 99 96 100 99 75 47 33 23 36 35 38 31 24 21 10 16 18 26 30 43 46 59 60 60 53 47 46 46 44 47 53 53 48
100 100 100 100 98 100 100 100 100 100 100 100 98 100 100 100 100 96 75 70 87 100 100 96 72 43 36 37 43 52 55 53 40 36 30 26 29 26 20 22 33 89 72 93 98 95 94 99 94 62 49 42 40 51
92 77 58 68 68 78 99 100 100 76 100 100 100 100 100 100 97 79 88 100 100 100 98 84 76 80 63 62 62 60 58 55 50 40 36 33 29 24 21 22 27 81 86 94 100 100 100 100 87 61 53 53 55 68
88 72 88 99 100 95 98 100 100 100 100 100 100 100 100 97 100 100 100 100 100 93 79 60 44 42 63 70 70 67 66 50 48 42 43 54 35 32 37 32 76 76 97 100 97 96 83 69 66 65 62 54 57 70
47 47 52 52 59 60 68 95 94 100 87 59 50 47 40 33 32 38 40 44 57 64 53 49 61 70 79 86 80 64 57 48 44 64 92 81 94 100 100 94 75 64 92 89 74 62 53 62 70 74 83 87 93 98
46 53 56 54 70 88 90 85 85 85 64 40 36 33 30 28 32 24 27 35 70 93 100 100 100 99 89 77 68 48 34 62 42 64 79 96 98 100 100 83 72 62 66 65 43 38 52 71 69 72 95 100 100 99
38 35 43 62 78 78 69 66 66 67 53 49 46 46 60 62 56 50 43 42 58 64 61 46 43 43 38 39 31 33 37 56 62 79 96 100 98 93 60 47 44 45 42 34 38 43 54 76 82 96 100 100 100 99
28 35 32 32 35 36 35 32 28 24 23 21 19 17 17 18 22 27 26 23 20 21 22 25 26 33 38 40 60 61 51 61 85 96 100 99 85 77 92 77 71 72 76 73 69 72 82 90 99 100 100 97 62 39
13 12 12 13 14 16 18 19 26 32 35 41 50 53 57 47 33 26 30 36 37 40 39 43 49 79 93 88 74 62 52 54 78 94 91 79 85 100 100 100 100 95 88 90 94 96 99 100 100 100 81 49 39 41
51 50 51 52 54 57 58 57 56 58 66 66 67 72 69 64 58 56 58 52 44 48 57 74 86 60 72 66 56 44 46 62 66 77 85 100 98 100 100 98 99 100 100 100 100 100 100 96 71 73 49 30 36 44
74 79 85 90 91 90 90 88 92 96 94 93 89 87 84 91 92 91 90 73 66 47 41 39 37 34 36 41 37 34 41 51 69 88 98 100 100 100 100 100 100 100 100 100 100 100 100 99 91 75 57 41 39 42
98 100 100 100 100 99 98 100 100 100 100 100 100 99 96 97 97 99 100 100 87 76 77 71 68 65 62 54 48 53 65 84 100 100 100 100 100 100 100 100 100 100 100 100 100 100 100 100 100 100 99 86 71 65
100 100 100 100 96 98 94 99 100 100 98 100 100 100 100 100 100 100 100 99 100 100 100 100 100 100 100 100 100 100 100 100 100 100 100 100 100 100 100 100 100 100 100 100 100 100 100 100 100 100 100 100 100 100
62 82 91 99 100 100 100 100 100 100 100 94 95 93 94 100 100 100 100 100 100 100 100 100 100 100 100 100 100 100 100 100 100 100 100 100 100 100 100 100 100 100 100 100 100 100 100 100 100 100 100 100 100 100
10 17 33 45 49 58 65 83 88 89 88 84 85 83 88 92 95 99 100 100 100 100 100 100 100 100 100 100 100 100 100 100 100 100 100 100 100 100 100 100 100 100 100 100 100 100 100 100 100 100 100 100 100 100
8 7 7 8 9 10 16 34 48 51 50 51 54 62 63 72 85 91 100 100 98 94 98 100 100 100 100 100 100 100 100 100 100 100 100 100 100 100 100 100 100 100 100 100 100 100 100 100 100 100 100 100 100 100
94 61 25 13 7 7 7 9 12 15 18 18 18 21 30 56 63 68 89 100 100 100 100 100 100 99 98 99 100 100 100 100 100 100 100 100 100 100 100 100 100 100 100 100 100 100 100 100 100 100 100 100 100 100
100 100 100 95 80 55 26 9 8 8 8 8 8 10 14 16 29 39 52 66 78 90 93 99 100 100 100 100 100 100 100 100 100 100 100 100 100 100 100 100 100 100 100 100 100 99 95 83 69 48 38 36 40 42
100 100 100 100 100 100 100 82 35 13 11 9 8 8 8 9 9 10 15 23 43 61 63 62 60 61 64 71 76 80 84 87 92 92 92 92 94 93 92 86 77 63 48 34 28 25 25 27 28 29 31 32 35 36
58 85 100 100 100 100 100 100 100 84 56 32 20 10 9 9 9 8 8 8 10 15 28 47 62 63 64 64 63 62 61 57 49 42 35 29 24 24 25 29 32 34 36 37 37 37 39 42 46 52 60 68 76 84
84 85 63 39 64 100 100 100 100 100 96 92 87 57 27 13 9 9 8 8 8 9 10 12 13 15 17 20 24 27 29 29 28 25 26 29 31 30 27 27 29 32 36 41 44 48 54 58 60 66 75 85 94 99
82 90 81 49 31 53 91 100 100 100 100 97 90 86 82 62 24 17 15 10 10 9 9 10 12 16 19 22 24 26 27 30 33 32 26 25 26 27 27 28 30 33 34 35 36 38 51 67 81 91 96 97 99 100

GFSWCAN_500_rhum_162.txt.gz
RH
100 100 100 100 100 100 81 54 71 97 100 100 100 100 100 94 69 66 73 83 91 85 78 88 94 94 100 99 100 100 100 100 100 100 98 88 86 98 96 89 94 95 100 98 100 100 100 100 96 75 84 75 61 61
100 100 100 100 100 87 100 77 60 88 100 100 100 100 100 97 96 65 52 56 55 51 60 75 77 90 100 100 100 95 100 100 100 100 96 100 100 100 95 74 92 80 94 100 100 100 100 100 96 73 62 69 65 67
100 100 100 100 100 88 100 85 41 45 100 100 100 98 92 63 63 67 64 51 34 39 24 47 62 81 93 100 100 99 100 100 100 100 100 100 100 84 82 88 77 77 100 100 97 83 100 100 91 77 66 74 76 71
100 100 100 100 98 92 100 94 66 58 64 74 71 68 91 99 91 88 74 76 69 48 22 19 39 69 99 98 97 100 100 100 98 100 100 91 75 68 63 55 73 100 97 99 100 100 100 96 85 92 86 81 73 76
92 92 100 97 83 100 100 96 86 98 100 100 97 100 100 100 100 100 73 64 68 59 28 17 24 32 80 94 96 100 100 100 100 100 77 96 67 69 72 80 89 100 97 98 98 100 97 85 77 71 60 57 76 85
88 91 100 94 100 100 100 100 100 100 100 100 100 100 100 100 100 84 86 97 100 100 45 20 22 24 32 75 96 94 100 100 98 97 100 83 100 92 83 65 34 41 47 52 62 72 67 63 71 74 81 82 100 100
74 76 84 93 100 100 100 100 100 100 100 100 100 98 100 92 78 91 94 100 100 100 84 25 22 22 29 46 82 97 97 99 100 100 100 85 40 32 19 15 56 37 36 33 36 50 58 54 52 57 52 80 99 100
52 56 64 81 97 100 100 100 100 100 100 100 100 96 92 90 80 86 100 100 100 95 61 26 88 100 69 82 100 100 95 100 100 100 98 71 28 19 12 23 11 18 26 31 39 47 65 78 76 88 98 96 98 100
100 100 94 70 66 66 60 56 61 99 100 100 90 100 92 94 86 97 96 99 100 100 52 98 100 97 100 100 100 100 100 100 97 99 75 21 22 20 18 18 13 18 27 37 52 68 66 73 90 87 87 91 86 82
99 100 100 100 100 98 100 94 69 89 91 98 70 59 70 93 100 100 82 100 94 83 82 100 100 100 100 100 100 100 100 100 85 31 15 14 21 27 25 21 20 20 22 31 36 81 100 90 93 91 84 79 76 81
35 35 46 77 97 85 77 96 78 46 36 44 75 100 96 86 91 96 100 69 45 54 90 100 100 100 100 100 100 100 77 40 20 23 20 13 19 37 20 16 16 17 17 22 38 55 72 86 98 92 88 81 79 71
91 29 22 22 41 43 35 31 56 88 100 100 92 85 100 100 98 99 100 99 56 74 80 97 100 100 100 100 88 55 30 26 22 22 19 13 19 34 32 28 26 20 22 20 44 63 59 61 68 69 66 60 49 39
82 100 99 90 80 72 76 82 94 100 100 88 91 98 100 100 100 100 100 79 67 72 74 92 80 100 98 73 51 36 30 23 22 20 18 21 35 39 36 32 29 29 28 21 26 90 72 64 62 60 78 84 72 58
74 68 76 94 100 100 100 96 85 94 100 97 100 100 82 100 78 71 90 95 90 91 96 95 100 100 85 62 44 32 25 27 29 23 31 51 46 42 42 24 37 40 29 27 68 100 98 95 92 93 90 87 71 54
52 43 53 45 58 91 83 68 94 71 95 93 100 86 100 87 87 99 73 66 77 84 99 100 99 92 80 54 46 49 37 28 26 42 60 50 38 28 36 56 62 81 84 91 100 100 94 95 92 78 74 66 68 67
66 58 58 40 46 60 79 89 98 95 100 99 100 82 99 100 100 91 94 100 84 71 65 70 78 76 72 67 48 36 30 30 59 63 43 35 32 64 78 92 99 100 86 100 100 100 100 85 74 61 58 58 64 68
45 52 53 54 62 71 69 71 75 69 55 47 39 35 31 28 24 23 25 27 36 47 48 61 69 74 61 47 36 42 44 77 62 40 40 35 71 88 88 82 96 100 100 100 98 89 85 75 43 45 67 73 74 86
52 67 83 96 100 100 91 71 69 57 49 41 39 37 36 27 25 33 43 44 46 53 60 66 76 76 72 76 74 78 97 76 46 38 34 72 89 82 97 100 100 97 74 60 58 56 55 44 38 46 65 79 83 100
30 37 45 55 68 82 80 75 69 57 49 42 33 28 26 22 18 18 19 19 22 24 29 36 38 48 56 53 51 44 44 36 34 31 68 99 75 98 100 100 100 100 100 90 75 64 62 59 54 63 82 90 97 100
15 15 17 21 23 26 26 28 28 33 48 54 66 67 70 66 53 33 26 26 29 34 41 50 58 72 74 84 68 45 40 58 69 62 68 66 82 100 100 100 100 100 100 100 99 98 100 100 100 100 98 98 100 99
56 55 58 60 60 64 63 64 70 74 76 75 79 82 91 86 86 83 71 54 31 30 31 35 34 34 41 50 58 66 59 48 41 47 67 78 80 99 100 100 100 100 100 100 100 100 100 100 100 100 100 100 93 85
92 90 91 91 92 95 95 95 96 96 93 95 95 96 98 100 100 98 98 96 70 61 60 56 54 60 58 55 42 32 31 33 38 45 48 57 83 99 100 100 100 100 100 100 100 100 100 100 99 96 92 95 91 74
98 99 100 100 100 99 99 94 99 99 100 100 98 100 99 97 97 100 100 100 100 97 94 90 85 73 66 60 54 57 50 44 42 48 61 79 94 100 100 100 100 100 100 100 100 100 100 100 100 100 100 100 100 100
72 96 98 98 90 91 83 86 92 96 99 99 99 100 100 100 100 99 100 98 100 100 100 100 100 100 100 100 100 100 99 98 97 97 99 100 100 100 100 100 99 99 99 100 100 100 100 100 100 100 100 100 100 100
14 24 25 30 37 55 66 75 79 82 87 88 94 94 92 93 99 100 100 100 100 100 100 100 100 100 100 100 100 100 100 100 100 100 100 100 100 100 100 100 99 100 100 100 100 100 100 100 100 100 100 100 100 100
32 16 13 11 10 11 12 17 23 35 51 57 61 55 55 54 56 72 98 100 100 100 100 100 100 100 100 100 100 100 100 100 100 100 100 100 100 100 100 100 100 100 100 100 100 100 100 100 100 100 100 100 100 100
96 90 78 63 47 19 10 8 8 9 12 16 22 24 22 20 23 36 49 69 94 100 100 100 100 100 100 100 100 100 100 100 100 100 100 100 100 100 100 100 100 100 100 100 100 100 100 100 100 100 100 100 100 100
100 100 100 100 100 100 99 86 28 10 8 9 9 9 10 12 14 15 18 30 56 87 95 92 94 100 100 100 100 100 100 100 100 100 100 100 100 100 100 100 100 100 100 100 100 100 100 100 100 100 100 100 100 100
76 63 72 82 94 98 99 100 100 100 78 38 15 11 10 10 9 9 10 11 12 28 56 71 80 87 96 99 99 99 100 100 100 100 100 100 100 100 100 100 100 100 100 100 100 100 99 95 88 74 60 49 39 35
70 67 65 54 44 48 50 54 80 99 100 100 93 58 25 14 12 10 9 9 9 10 11 19 45 62 63 61 60 60 62 63 62 65 68 73 71 70 73 73 70 62 49 37 32 30 31 33 35 37 38 39 41 43
99 94 94 100 97 70 48 36 21 46 96 100 100 100 98 57 42 26 14 10 10 9 9 9 10 11 20 35 49 56 60 58 56 52 47 40 33 29 26 25 27 30 31 30 29 30 32 35 38 40 44 48 51 57
100 100 100 100 100 80 41 15 13 28 71 100 98 100 100 100 99 82 40 19 13 11 10 9 9 9 10 12 14 15 17 20 24 27 27 27 28 29 29 26 25 25 26 27 30 34 36 36 36 37 38 51 68 85
100 100 99 97 94 96 62 18 13 31 64 100 100 98 95 100 100 99 84 63 40 20 13 12 11 10 11 12 14 17 20 22 24 26 28 28 27 26 26 28 30 33 36 38 41 48 53 58 57 51 51 77 100 100

GFSWCAN_500_rhum_165.txt.gz
RH
93 100 100 100 100 100 100 100 87 74 94 100 98 100 100 100 100 98 96 100 100 89 82 85 81 87 98 100 98 100 100 100 100 92 93 100 87 98 96 97 100 100 100 95 100 100 90 77 90 100 100 99 89 98
100 86 100 100 100 100 100 100 100 89 67 81 100 100 100 100 100 100 95 100 100 92 72 85 87 82 90 100 100 100 99 100 92 100 100 100 100 99 99 80 97 91 95 93 100 97 100 100 100 100 100 100 99 76
100 100 87 100 100 100 100 96 89 97 95 79 90 100 100 100 100 99 93 94 95 72 52 57 65 83 90 98 100 89 100 97 100 99 100 100 97 99 100 81 72 80 74 68 75 99 100 100 100 100 100 100 100 94
100 100 98 100 100 100 100 100 100 100 100 84 99 100 100 100 100 90 84 97 59 50 35 27 32 40 64 85 93 88 100 98 100 98 90 97 100 100 89 76 47 57 49 64 86 100 100 100 100 100 100 100 100 89
100 100 100 100 100 100 100 100 100 100 100 56 83 100 100 100 100 100 94 77 92 85 60 36 26 26 29 56 93 100 95 100 100 100 100 95 100 90 63 56 45 85 100 95 90 88 77 98 100 100 100 100 100 94
100 100 100 100 100 100 100 100 100 100 91 67 68 100 100 100 100 96 94 97 97 98 67 37 22 30 23 29 70 89 98 99 100 100 100 63 82 98 80 59 100 94 93 86 41 34 36 32 50 94 99 94 78 91
79 92 100 100 100 100 100 100 98 100 100 100 100 100 100 100 98 100 99 99 98 86 75 60 31 26 25 24 68 92 97 93 97 98 82 78 99 99 75 38 54 44 30 18 12 10 11 13 26 61 75 81 70 71
84 93 91 100 100 100 100 100 100 99 99 100 100 100 100 100 97 85 86 83 90 97 90 66 59 35 24 33 64 78 87 96 100 99 97 97 98 95 68 44 20 13 10 10 8 7 7 10 22 48 64 76 80 81
93 81 94 99 97 100 100 100 100 100 100 100 100 88 88 83 86 100 74 68 100 100 91 65 50 95 77 71 36 40 68 88 96 100 99 100 100 89 67 22 15 10 8 8 9 17 18 15 20 34 62 60 78 99
96 100 100 88 81 72 77 85 88 93 100 98 94 86 85 97 100 85 71 64 59 76 53 83 100 100 100 100 100 98 99 99 93 90 100 81 87 63 25 15 12 9 9 9 9 16 16 18 33 46 64 83 88 99
56 92 91 80 70 72 72 69 65 64 72 66 70 66 71 84 77 71 58 46 42 54 97 100 100 100 100 100 100 100 100 100 100 100 98 90 34 20 17 17 14 12 11 20 20 23 24 19 46 72 95 74 72 80
18 52 70 83 94 90 74 49 48 47 51 41 51 52 55 70 84 77 52 39 54 97 100 100 100 100 100 100 100 100 94 100 100 82 49 26 28 28 26 29 24 21 26 32 30 27 22 26 64 90 88 66 57 58
44 26 25 32 34 38 42 46 48 55 64 78 96 100 100 100 100 88 50 50 80 100 100 100 100 100 90 72 89 100 89 71 47 28 25 20 23 27 38 37 40 39 41 33 32 26 30 26 95 97 82 81 75 72
85 97 78 55 48 43 42 50 59 72 80 89 98 100 100 100 100 100 84 77 94 95 97 98 92 90 97 95 100 91 54 35 31 29 28 30 32 40 45 45 47 30 41 53 52 57 59 46 100 100 100 96 97 99
47 38 44 50 54 68 72 80 90 96 100 92 94 100 100 100 100 89 75 75 67 70 80 80 83 84 98 95 82 56 48 39 36 36 36 47 65 67 55 41 34 64 70 93 100 100 81 76 100 100 100 100 84 73
30 52 37 27 32 42 38 67 84 100 77 100 97 99 100 100 98 80 58 54 57 60 60 65 70 71 92 87 66 55 48 47 52 69 76 74 69 59 41 32 60 83 82 84 99 88 81 95 100 100 100 86 69 62
30 32 42 51 57 66 74 84 86 86 61 43 47 47 48 50 42 38 64 73 61 54 59 55 52 57 50 43 33 30 35 58 71 73 65 76 70 48 37 45 83 100 95 81 94 86 78 92 96 91 84 58 48 60
32 46 56 40 37 41 50 50 55 62 46 38 35 36 30 31 36 35 35 36 38 37 33 30 26 26 29 29 33 44 80 100 100 90 77 88 63 48 36 69 86 100 100 98 93 78 74 72 70 73 69 58 41 51
38 32 31 41 48 46 46 46 46 36 34 28 26 25 29 28 26 26 24 23 23 27 27 24 35 37 34 35 47 59 73 78 93 100 95 76 62 39 62 72 93 100 100 100 100 100 100 86 62 52 56 54 54 62
19 22 26 28 30 30 32 39 56 64 89 94 99 99 98 90 95 93 60 36 30 31 33 42 57 52 49 34 34 58 69 69 57 69 68 66 44 64 65 87 100 100 100 100 100 100 100 100 99 99 100 100 100 100
93 90 83 81 82 85 90 92 96 100 100 100 100 100 100 100 100 100 100 100 76 36 40 41 37 37 48 56 54 53 40 24 21 30 38 44 60 66 69 85 100 100 100 100 100 100 100 100 100 100 100 100 100 100
94 95 99 100 100 100 100 100 100 100 100 100 97 96 95 98 100 100 100 100 100 100 83 75 80 84 88 84 76 73 77 70 58 48 43 43 48 60 66 84 100 100 99 98 98 100 100 100 100 100 100 100 100 100
94 100 100 100 100 99 100 100 100 100 100 100 99 100 100 100 100 100 100 100 98 100 100 100 100 100 100 100 100 99 90 74 60 48 42 43 48 62 81 95 99 98 94 96 99 100 98 100 100 100 100 100 100 100
29 34 51 65 66 74 66 82 92 99 100 100 100 100 100 100 97 99 100 100 100 100 100 100 99 97 96 97 95 96 94 96 100 100 99 96 94 98 100 99 97 93 95 100 100 100 100 100 100 100 100 100 100 100
36 30 25 20 18 17 16 17 23 34 44 50 70 86 87 82 80 73 70 90 100 100 100 100 100 100 100 100 100 100 100 100 99 98 98 98 97 96 93 97 94 98 100 100 97 98 100 100 100 100 100 100 100 100
61 75 80 91 84 67 26 16 13 12 12 13 17 26 38 46 48 36 40 50 66 84 94 99 100 100 100 100 100 100 100 98 96 96 99 99 98 99 98 98 99 100 100 100 100 100 100 100 100 100 100 100 99 99
100 100 100 100 100 100 100 100 99 91 60 20 12 12 14 18 23 22 21 19 20 37 64 85 99 100 100 100 99 100 100 100 100 100 100 100 99 100 100 100 100 100 100 100 100 100 100 100 100 100 100 100 100 100
100 100 100 100 100 100 100 100 88 93 98 100 100 89 34 13 12 12 10 11 13 17 34 51 52 71 100 95 100 100 100 100 100 99 100 100 100 100 100 100 100 100 100 100 100 100 100 100 100 100 100 100 100 100
100 100 100 100 100 86 70 52 48 45 36 40 70 98 100 97 78 35 14 10 10 11 13 18 34 46 58 64 74 78 81 83 83 89 92 92 93 92 91 90 92 90 90 90 89 89 86 81 76 65 56 50 43 38
100 100 100 100 100 100 98 94 87 45 39 30 22 34 85 90 90 92 98 52 14 12 10 10 11 10 18 47 60 64 62 62 61 62 62 64 66 64 62 54 43 33 26 25 27 29 31 32 33 34 36 38 41 43
100 100 100 100 100 100 100 100 99 89 72 60 44 19 16 68 95 100 100 100 88 27 13 12 11 10 10 11 13 21 34 43 47 46 43 39 35 31 30 29 27 27 28 27 24 24 25 28 32 35 38 41 41 40
100 100 100 100 100 100 100 100 100 100 100 98 72 44 13 17 76 100 100 100 100 92 46 17 13 12 11 10 11 12 13 15 16 18 22 25 26 26 27 28 28 25 25 26 29 33 36 38 40 47 58 69 71 68
99 100 100 100 86 62 41 51 78 94 100 98 81 46 22 18 54 90 100 100 100 100 99 66 31 16 14 14 14 14 14 17 20 23 25 26 29 30 29 27 27 28 30 33 37 41 46 53 75 92 88 82 82 79